Regional Weather Roundup
Issued by NWS

Home | Current Version | Previous Version | Text Only | Print | Product List | Glossary On
Versions: 1 2 3 4 5 6 7 8 9 10 11 12 13 14 15 16 17 18 19 20 21 22 23 24 25 26 27 28 29 30 31 32 33 34 35 36 37 38 39 40 41 42 43 44 45 46 47 48 49 50
000
ASUS44 KFWD 161203
RWRTX
NORTH TEXAS HOURLY WEATHER ROUNDUP
NATIONAL WEATHER SERVICE FORT WORTH TX
700 AM CDT WED AUG 16 2017

NOTE: "FAIR" INDICATES FEW OR NO CLOUDS BELOW 12,000 FEET WITH NO
SIGNIFICANT WEATHER AND/OR OBSTRUCTIONS TO VISIBILITY.

TXZ118-119-161300-
DALLAS/FORT WORTH METROPLEX

CITY           SKY/WX    TMP DP  RH WIND       PRES   REMARKS
DFW AIRPORT    CLOUDY    81  74  79 S10       29.88R
6HR MIN TEMP:  81; 6HR MAX TEMP:  87;

DALLAS LOVE    CLOUDY    81  73  76 S10       29.90R
6HR MIN TEMP:  81; 6HR MAX TEMP:  87; 6HR PCP: TRACE;

FTW MEACHAM    CLOUDY    80  74  81 S13       29.89R
6HR MIN TEMP:  80; 6HR MAX TEMP:  87; 6HR PCP: TRACE;

DAL-EXECUTIVE  PTCLDY    79  74  84 S7        29.90R
6HR MIN TEMP:  79; 6HR MAX TEMP:  85;

FTW-ALLIANCE   CLOUDY    79  73  82 S9G18     29.89R
6HR MIN TEMP:  79; 6HR MAX TEMP:  85; 6HR PCP: TRACE;

FTW-NAS-JRB    CLOUDY    80  73  79 S13       29.90R
6HR MIN TEMP:  80; 6HR MAX TEMP:  88; 6HR PCP: TRACE;

FTW-SPINKS     CLEAR     79  72  78 S9        29.91R
ARLINGTON      MOCLDY    79  74  84 S10       29.90R
6HR MIN TEMP:  79; 6HR MAX TEMP:  86; 6HR PCP: TRACE;

GRAND PRAIRIE  CLEAR     79  72  78 S8        29.91R
ADDISON        PTCLDY    79  72  78 S13G18    29.91R
MESQUITE       CLOUDY    77  73  88 SE7       29.91S
LANCASTER      PTCLDY    77  73  86 S5        29.92R
6HR MIN TEMP:  77; 6HR MAX TEMP:  84;

$$

TXZ091>094-102>105-117-120-121-131>134-161300-
NORTH CENTRAL TEXAS

CITY           SKY/WX    TMP DP  RH WIND       PRES   REMARKS
SHRMAN/DENISON CLOUDY   N/A N/A N/A S13       29.89R
GAINESVILLE    CLOUDY    78  71  79 SE10      29.89S
6HR MIN TEMP:  77; 6HR MAX TEMP:  81;

BOWIE          CLOUDY    78  76  92 SE8       29.87R
6HR MIN TEMP:  78; 6HR MAX TEMP:  80;

BRIDGEPORT     CLOUDY    80  70  72 S9        29.89R
6HR MIN TEMP:  78; 6HR MAX TEMP:  83;

DECATUR        CLOUDY    78  72  79 S12       29.89R
6HR MIN TEMP:  78; 6HR MAX TEMP:  84;

DENTON         CLOUDY    79  73  82 S12       29.89R
6HR MIN TEMP:  79; 6HR MAX TEMP:  85;

MCKINNEY       CLOUDY    78  75  90 S14       29.90R
6HR MIN TEMP:  78; 6HR MAX TEMP:  83; 6HR PCP: TRACE;

BONHAM         CLOUDY    77  72  83 S14       29.91R
ROCKWALL       CLOUDY    78  74  89 S12G25    29.92R
6HR MIN TEMP:  78; 6HR MAX TEMP:  82;

TERRELL        MOCLDY    78  73  84 S7        29.93R
6HR MIN TEMP:  78; 6HR MAX TEMP:  83;

WAXAHACHIE     CLOUDY    77  73  87 S9        29.93R
6HR MIN TEMP:  77; 6HR MAX TEMP:  83;

CLEBURNE       CLOUDY    79  75  89 S12       29.93R
GRANBURY       PTCLDY    80  72  75 SE9       29.91R
6HR MIN TEMP:  80; 6HR MAX TEMP:  85;

$$

TXZ083>090-098>101-113>116-127>130-139>142-154-155-161300-
WESTERN NORTH TEXAS

CITY           SKY/WX    TMP DP  RH WIND       PRES   REMARKS
WICHITA FALLS  CLOUDY    79  70  74 S9        29.84R
6HR MIN TEMP:  76; 6HR MAX TEMP:  80;

WF-KICKAPOO    CLOUDY    80  72  76 S6        29.87R
6HR MIN TEMP:  77; 6HR MAX TEMP:  81;

VERNON         PTCLDY    74  71  88 S3        29.86R
6HR MIN TEMP:  72; 6HR MAX TEMP:  89;

ABILENE        CLOUDY    74  71  91 S12       29.91F
6HR MIN TEMP:  73; 6HR MAX TEMP:  75; 6HR PCP: TRACE;

ABILENE-DYESS  CLOUDY    74  71  88 S13       29.89R
6HR MIN TEMP:  73; 6HR MAX TEMP:  75; 6HR PCP: TRACE;

GRAHAM         CLOUDY    79  72  78 E5        29.86R
6HR MIN TEMP:  78; 6HR MAX TEMP:  82;

CISCO          CLOUDY    75  72  88 S10       29.91S
EASTLAND       CLOUDY    78  72  82 S9        29.91R
6HR MIN TEMP:  76; 6HR MAX TEMP:  80;

RANGER         CLOUDY    77  71  80 S9        29.91S
6HR MIN TEMP:  64; 6HR MAX TEMP:  93;

MINERAL WELLS  MOCLDY    79  71  76 S13       29.88R
6HR MIN TEMP:  79; 6HR MAX TEMP:  81; 6HR PCP: TRACE;

STEPHENVILLE   PTCLDY    76  70  80 S8        29.94S
6HR MIN TEMP:  76; 6HR MAX TEMP:  81;

COMANCHE       CLOUDY    78  72  81 S12       29.92R
6HR MIN TEMP:  78; 6HR MAX TEMP:  83;

BROWNWOOD      CLOUDY    77  72  83 S6        29.93R
COLEMAN        PTCLDY    75  71  87 S8        29.93R
6HR MIN TEMP:  74; 6HR MAX TEMP:  75;

$$

TXZ143>147-156>162-174-175-161300-
CENTRAL TEXAS

CITY           SKY/WX    TMP DP  RH WIND       PRES   REMARKS
WACO           MOCLDY    79  75  87 S10       29.92R
6HR MIN TEMP:  79; 6HR MAX TEMP:  84;

WACO-MCGREGOR  MOCLDY    78  74  87 S10       29.93R
6HR MIN TEMP:  78; 6HR MAX TEMP:  82;

HILLSBORO      PTCLDY    78  74  87 S10       29.93R
6HR MIN TEMP:  78; 6HR MAX TEMP:  84;

CORSICANA      PTCLDY    79  75  87 S9        29.93R
6HR MIN TEMP:  79; 6HR MAX TEMP:  84;

MEXIA          CLOUDY    78  75  90 S13G22    29.93R
6HR MIN TEMP:  77; 6HR MAX TEMP:  82;

HEARNE         PTCLDY    77  77 100 SE5       29.95R
6HR MIN TEMP:  77; 6HR MAX TEMP:  80;

CAMERON        CLOUDY    80  76  89 S10       29.93R
6HR MIN TEMP:  80; 6HR MAX TEMP:  81;

TEMPLE         CLOUDY    78  75  90 S13       29.93R
6HR MIN TEMP:  78; 6HR MAX TEMP:  80;

KILLEEN        CLEAR     79  73  83 S10       29.93R
KILLEEN-SKYLRK CLOUDY    79  73  82 S12       29.93R
6HR MIN TEMP:  79; 6HR MAX TEMP:  81;

FORT HOOD      CLOUDY    77  72  82 S10       29.90R
6HR MIN TEMP:  77; 6HR MAX TEMP:  80;

HAMILTON       PTCLDY    77  71  82 S10       29.94R
6HR MIN TEMP:  77; 6HR MAX TEMP:  84;

LAMPASAS       MOCLDY    78  74  86 S6        29.93R
6HR MIN TEMP:  78; 6HR MAX TEMP:  82;

$$

TXZ095>097-106>112-122>126-135>138-148>153-164>167-161300-
EAST TEXAS

CITY           SKY/WX    TMP DP  RH WIND       PRES   REMARKS
PARIS          CLOUDY    78  74  87 S8        29.93R
6HR MIN TEMP:  77; 6HR MAX TEMP:  78;

SULPHUR SPRNGS CLOUDY    78  74  88 SW9       29.95R
6HR MIN TEMP:  78; 6HR MAX TEMP:  82;

MOUNT PLEASANT CLEAR    N/A N/A N/A SE5       29.96R
GILMER         MOCLDY    76  75  95 S5        29.95R
6HR MIN TEMP:  76; 6HR MAX TEMP:  80;

MINEOLA        CLEAR     77  75  94 S6        29.94R
TYLER          MOCLDY    78  77  96 S12       29.94R
6HR MIN TEMP:  78; 6HR MAX TEMP:  81;

LONGVIEW       PTCLDY    77  77 100 S7        29.95R
6HR MIN TEMP:  77; 6HR MAX TEMP:  81;

MARSHALL         N/A     75  73  93 S3        29.98S
6HR MIN TEMP:  75; 6HR MAX TEMP:  76;

ATHENS         CLOUDY    77  77 100 S7        29.93R
PALESTINE      PTCLDY    77  76  98 SE5       29.95R
JACKSONVILLE   CLEAR     76  76 100 S7        29.98R FOG
HENDERSON      PTCLDY    76  75  97 S3        29.97R
6HR MIN TEMP:  76; 6HR MAX TEMP:  80;

CENTER         CLOUDY    81  80  95 SE3       29.99S HX  91
6HR MIN TEMP:  80; 6HR MAX TEMP:  83;

LUFKIN         CLEAR     76  75  97 SE3       29.97R
6HR MIN TEMP:  76; 6HR MAX TEMP:  79;

$$

SUPPLEMENTAL OBSERVATIONS (NWS FORT WORTH AREA)

CITY           SKY/WX    TMP DP  RH WIND       PRES   REMARKS
$$

SUPPLEMENTAL OBSERVATIONS (NWS NORMAN AREA)

CITY           SKY/WX    TMP DP  RH WIND       PRES   REMARKS
GOODLETT         N/A     73  69  88 S7        29.85S
ODELL            N/A     74  72  92 S7        29.86S
CROWELL          N/A     74  71  91 S6        29.88R
KNOX CITY        N/A     74  68  81 S6        29.87R
SEYMOUR          N/A     74  69  82 S3        29.87R
$$

SUPPLEMENTAL OBSERVATIONS (NWS SAN ANGELO AREA)

CITY           SKY/WX    TMP DP  RH WIND       PRES   REMARKS
WEINERT          N/A     73  70  89 S5        29.88R
HASKELL          N/A     75  67  76 S10



USA.gov is the U.S. government's official web portal to all federal, state and local government web resources and services.